Location: Newark
(7.0858°N, 171.3717°E)
Time: 05:05:52
(UTC+00:00)

Vanguard 2 - Pass Details

Date: 26 November 2020
Orbit: 553 x 2937 km, 32.9° (Epoch: 26 January)

Event Time Altitude Azimuth Distance (km) Brightness Sun altitude
Rises 08:01:46 0° 285° (WNW) 4,029 12.0 -25.8°
Reaches altitude 10° 08:04:17 10° 277° (W) 3,333 11.6 -26.4°
Maximum altitude 08:12:29 42° 209° (SSW) 2,435 10.3 -28.3°
Drops below altitude 10° 08:25:26 10° 144° (SE) 5,184 11.6 -31.3°
Sets 08:30:32 0° 138° (SE) 6,473 12.1 -32.5°
